Regional Weather Roundup
Issued by NWS Charleston, SC

Current Version | Previous Version | Graphics & Text | Print | Product List | Glossary On
Versions: 1 2 3 4 5 6 7 8 9 10 11 12 13 14 15 16 17 18 19 20 21 22 23 24 25 26 27 28 29 30 31 32 33 34 35 36 37 38 39 40 41 42 43 44 45 46 47 48 49 50
000 ASUS42 KCHS 051112 RWRCHS REGIONAL WEATHER ROUNDUP NATIONAL WEATHER SERVICE CHARLESTON SC 600 AM EST THU MAR 05 2015 NOTE: "FAIR" INDICATES FEW OR NO CLOUDS BELOW 12,000 FEET WITH NO SIGNIFICANT WEATHER AND/OR OBSTRUCTIONS TO VISIBILITY. NOT ALL STATIONS ARE QUALITY CONTROLLED BY THE NATIONAL WEATHER SERVICE. USE DATA WITH CAUTION...ESPECIALLY DEWPOINT OBSERVATIONS. SCZ027-030-031-034>040-042>050-051200- ...SOUTHEAST SOUTH CAROLINA... CITY SKY/WX TMP DP RH WIND PRES REMARKS N CHARLESTON PTCLDY 58 57 97 S6 30.00R WATERFRONT PRK N/A 61 N/A N/A SW10G17 N/A MOUNT PLEASANT FAIR 63 61 94 SW12 30.01R PINOPOLIS N/A 66 61 82 S5 29.90 MONCKS CORNER FAIR 63 59 88 S7 29.98S SUMMERVILLE FAIR 61 61 100 S5 30.00R BEAUFORT MCAS CLOUDY 63 62 97 SW5 30.01R BEAUFORT ARPT CLOUDY 63 63 100 S5G16 30.01R HILTON HEAD IS NOT AVBL WALTERBORO PTSUNNY 63 63 100 S6 30.00R ALLENDALE FAIR 64 64 100 CALM 29.97R ...SOUTHERN MIDLANDS AND PEE DEE... CITY SKY/WX TMP DP RH WIND PRES REMARKS GEORGETOWN NOT AVBL KINGSTREE NOT AVBL ORANGEBURG PTCLDY 65 60 84 SW9 29.96S BARNWELL FAIR 66 64 94 SW5 29.96R AIKEN FAIR 66 64 94 SW15 29.97R MANNING FAIR N/A N/A N/A S5 29.97R COLUMBIA PTCLDY 68 61 78 SW13G25 29.91S SUMTER NOT AVBL FLORENCE CLEAR 64 60 87 S10 29.93S MYRTLE BEACH CLEAR 61 55 82 SW12 29.99F N MYRTLE BEACH FOG 54 53 97 SW14 29.98R VSB 1/4 $$ GAZ063-065-086>088-099>101-113>116-118-119-134>141-150-051200- ...SOUTHEAST GEORGIA... CITY SKY/WX TMP DP RH WIND PRES REMARKS SAVANNAH ARPT PTCLDY 66 63 90 S14 30.01R HUNTER AAF CLEAR 65 65 100 S6 30.00R FORT STEWART CLEAR 67 64 88 S7 30.00R STATESBORO CLOUDY 65 65 100 S7 29.99R SYLVANIA CLOUDY 65 65 99 S7 29.99R CLAXTON FAIR 66 64 94 S7 29.99S ...CSRA...CENTRAL AND FAR SOUTHEAST GEORGIA... CITY SKY/WX TMP DP RH WIND PRES REMARKS THOMSON CLOUDY 70 67 90 S8G17 29.97R AUGUSTA-BUSH MOCLDY 68 63 84 SW9 29.95R AUGUSTA-DANIEL MOCLDY 69 63 81 SW15 29.95R SWAINSBORO CLOUDY 68 68 100 CALM 29.98R VIDALIA CLOUDY 64 64 100 SW6 29.99R EASTMAN CLOUDY 69 69 100 SW8G16 30.00R HAZLEHURST FAIR 68 67 96 S7 29.99R ALMA CLEAR 66 64 93 S8 30.02R WAYCROSS CLOUDY 70 69 97 SW7 30.04R JESUP PTSUNNY 68 68 100 SW5 30.03S BAXLEY FAIR 68 66 94 SW10 30.01R BRUNSWICK CLOUDY 68 64 88 SW7 30.06R SAINT SIMONS CLOUDY 64 63 96 W5 30.05R $$ SCZ027-028-034-036>038-045-046-048>050-GAZ119-141-051200- ...LAKE AND SUPPLEMENTAL COASTAL OBSERVATIONS... STATION/POSITION TIME TEMP WIND PRES WAVE SWELL AIR SEA DIR/SP/G HT/PER HT/PER/DIR (UTC) (F) (DEG/KT/KT) (MB) (FT/S) (FT/S/D) UPR LAKE MARION NOT AVBL WINYAH BAY NOT AVBL LAKE MURRAY 1000 61 210/ 11/ 14 1012.2S ACE BASIN NERRS NOT AVBL FORT PULASKI 1000 61 200/ 5/ 8 1016.8R SAPELO ISLAND 1000 63 190/ 5 1017.0S $$ ANZ835-935-AMZ111-154-330-350-352-354-370-450-454-472-051200- ...C-MAN AND BUOY OBSERVATIONS... STATION/POSITION TIME TEMP WIND PRES WAVE SWELL AIR SEA DIR/SP/G HT/PER HT/PER/DIR (UTC) (F) (DEG/KT/KT) (MB) (FT/S) (FT/S/D) BUOY 41004 1050 69 69 210/ 17/ 19 1015.8R 7/ 6 3/ 7 BUOY 41008 1050 57 54 190/ 8/ 10 1017.3R 4/ 6 3/120/ 6 FOLLY BEACH CMAN 1100 56 210/ 16/ 17 1016.5R CAPERS NEARSHORE 1000 53 230/ 8/ 10 N/A FRIPP NEARSHORE 1000 55 220/ 14/ 16 1016.1R STATION/POSITION TIME TEMP WIND PRES WAVE SWELL AIR SEA DIR/SP/G HT/PER HT/PER/DIR (UTC) (F) (DEG/KT/KT) (MB) (FT/S) (FT/S/D) 5E ST. MARYS GA 1021 55 N/A 3/ 6 2/100/11 FRYING PAN BUOY 1050 69 63 210/ 17/ 21 1016.1R 6/ 7 5/180/ 7 BUOY 41025 NOT AVBL CAPE LOOKOUT NC 1100 61 210/ 14/ 21 1014.9S BUOY 41002 1050 73 73 220/ 21/ 23 1019.9S 6/ 6 3/120/11 BUOY 41010 1020 74 74 180/ 16/ 17 1019.3R ST AUGUSTINE FL 1100 64 220/ 4/ 4 1018.9R $$

USA.gov is the U.S. government's official web portal to all federal, state and local government web resources and services.